Content
SEND FEEDBACK

Daily
Averages
Monthly
Summary
United States of America

WARTRACE, TENNESSEE


Home > North America > United States > Tennessee
Elevation: 775 feet     Latitude: 35 29N     Longitude: 086 27W

WEATHER
 
SELECT A DAY
Number of Records: 63,527;   Date Range: 9/2/10 - 11/26/14
 
SHARE

PRINT THIS DATA

[ ← Previous Day ]
WEATHER ALMANAC - OCTOBER 29, 2013
[ Next Day → ]
[ °C ]   °F
Weather ElementAverageHighLow
Temperature61.8 °F71.6 °F (12:55 pm)46.4 °F (6:55 am)
Dewpoint54.4 °F57.2 °F (10:35 am)46.4 °F (2:35 am)
Humidity78.5 %100 % (12:35 am)57 % (12:55 pm)
Barometer30.26 in30.32 in (9:35 am)30.21 in (5:15 pm)
Wind Speed3.2 mph11.5 mph (3:15 pm)
Weather ElementAverage
Visibility8.6 mi
Wind DirectionESE (111.9 °)

Weather ElementTotal
Precipitation---
Heating Degree Days6 (Base 65)
Growing Degree Days9 (Base 50)
Averaged from 59 records on October 29, 2013
WEATHER CONDITIONS BREAKOUT
WIND DIRECTION BREAKOUT
WEATHER BY HOUR - OCTOBER 29, 2013
[ °C ]   °F
Local TimeTemperatureDewpointHumidityBarometerVisibilityWind DirectionWind SpeedGust SpeedPrecipitationEventsConditions
12:35 AM48.2 °F48.2 °F100 %30.28 in0.2 miCalmOvercast
12:55 AM48.2 °F48.2 °F100 %30.28 in0.5 miCalmOvercast
1:15 AM51.8 °F51.8 °F100 %30.28 in1.5 miCalmOvercast
1:35 AM51.8 °F51.8 °F100 %30.28 in7.0 miCalmMostly Cloudy
1:55 AM51.8 °F51.8 °F100 %30.27 in10.0 miCalmPartly Cloudy
2:15 AM50.0 °F50.0 °F100 %30.28 in0.8 miCalmMostly Cloudy
2:35 AM48.2 °F46.4 °F93 %30.28 in0.2 miCalmOvercast
2:55 AM48.2 °F48.2 °F100 %30.28 in2.5 miCalmMostly Cloudy
3:15 AM48.2 °F46.4 °F93 %30.28 in0.5 miCalmOvercast
3:35 AM48.2 °F48.2 °F100 %30.29 in10.0 miCalmMostly Cloudy
3:55 AM48.2 °F48.2 °F100 %30.28 in9.0 miCalmOvercast
4:15 AM50.0 °F48.2 °F94 %30.28 in10.0 miCalmOvercast
5:55 AM48.2 °F48.2 °F100 %30.30 in4.0 miCalmScattered Clouds
6:55 AM46.4 °F46.4 °F100 %30.31 in0.2 miCalmOvercast
7:55 AM50.0 °F48.2 °F94 %30.30 in10.0 miCalmPartly Cloudy
9:35 AM60.8 °F55.4 °F82 %30.32 in10.0 miESE (110°)3.5 mphPartly Cloudy
9:55 AM60.8 °F55.4 °F82 %30.32 in10.0 miCalmScattered Clouds
10:15 AM64.4 °F55.4 °F73 %30.32 in10.0 miSE (140°)4.6 mphClear
10:35 AM64.4 °F57.2 °F77 %30.32 in10.0 miSE (130°)5.8 mphClear
10:55 AM64.4 °F55.4 °F73 %30.31 in10.0 miSSE (150°)4.6 mphClear
11:15 AM66.2 °F57.2 °F73 %30.31 in10.0 miSouth (180°)4.6 mphScattered Clouds
11:35 AM68.0 °F55.4 °F64 %30.30 in10.0 miSouth (180°)5.8 mphMostly Cloudy
11:55 AM69.8 °F57.2 °F64 %30.30 in10.0 miESE (120°)4.6 mphPartly Cloudy
12:15 PM69.8 °F57.2 °F64 %30.28 in10.0 miSouth (180°)6.9 mphPartly Cloudy
12:35 PM69.8 °F55.4 °F60 %30.27 in10.0 miSouth (180°)5.8 mphScattered Clouds
12:55 PM71.6 °F55.4 °F57 %30.25 in10.0 miSouth (180°)6.9 mphScattered Clouds
1:15 PM71.6 °F55.4 °F57 %30.25 in10.0 miSouth (190°)4.6 mphMostly Cloudy
1:35 PM69.8 °F55.4 °F60 %30.24 in10.0 miSouth (180°)6.9 mphOvercast
1:55 PM69.8 °F55.4 °F60 %30.25 in10.0 miSSW (210°)3.5 mphMostly Cloudy
2:15 PM69.8 °F55.4 °F60 %30.24 in10.0 miSSW (200°)4.6 mphMostly Cloudy
2:35 PM71.6 °F55.4 °F57 %30.24 in10.0 miWSW (240°)8.1 mphMostly Cloudy
2:55 PM71.6 °F55.4 °F57 %30.23 in10.0 miSW (230°)8.1 mphScattered Clouds
3:15 PM71.6 °F55.4 °F57 %30.23 in10.0 miSW (220°)11.5 mphMostly Cloudy
3:35 PM71.6 °F55.4 °F57 %30.23 in10.0 miSSW (210°)11.5 mphPartly Cloudy
3:55 PM71.6 °F55.4 °F57 %30.24 in10.0 miSW (230°)5.8 mphPartly Cloudy
4:15 PM71.6 °F55.4 °F57 %30.23 in10.0 miSSW (200°)5.8 mphPartly Cloudy
4:35 PM71.6 °F57.2 °F60 %30.22 in10.0 miSW (220°)5.8 mphPartly Cloudy
4:55 PM69.8 °F57.2 °F64 %30.22 in10.0 miSouth (180°)3.5 mphClear
5:15 PM69.8 °F57.2 °F64 %30.21 in10.0 miSSE (160°)4.6 mphClear
5:35 PM69.8 °F57.2 °F64 %30.21 in10.0 miSouth (180°)4.6 mphClear
5:55 PM66.2 °F57.2 °F73 %30.21 in10.0 miSouth (180°)3.5 mphClear
6:15 PM66.2 °F57.2 °F73 %30.22 in10.0 miCalmClear
6:35 PM66.2 °F57.2 °F73 %30.22 in10.0 miSouth (170°)3.5 mphClear
6:55 PM64.4 °F57.2 °F77 %30.23 in10.0 miCalmClear
7:15 PM64.4 °F57.2 °F77 %30.22 in10.0 miSouth (170°)3.5 mphClear
7:35 PM64.4 °F57.2 °F77 %30.23 in10.0 miCalmClear
7:55 PM64.4 °F57.2 °F77 %30.23 in10.0 miSSE (160°)3.5 mphClear
8:15 PM64.4 °F57.2 °F77 %30.23 in10.0 miSSE (160°)3.5 mphClear
8:35 PM64.4 °F57.2 °F77 %30.24 in10.0 miSSE (160°)3.5 mphClear
8:55 PM62.6 °F57.2 °F82 %30.24 in10.0 miCalmClear
9:15 PM62.6 °F57.2 °F82 %30.24 in10.0 miSSE (160°)3.5 mphClear
9:35 PM60.8 °F57.2 °F88 %30.24 in10.0 miSSE (160°)3.5 mphClear
9:55 PM62.6 °F57.2 °F82 %30.24 in10.0 miSSE (150°)3.5 mphClear
10:15 PM60.8 °F57.2 °F88 %30.24 in10.0 miSSE (160°)3.5 mphClear
10:35 PM57.2 °F55.4 °F94 %30.25 in10.0 miCalmClear
10:55 PM60.8 °F57.2 °F88 %30.24 in10.0 miSE (140°)3.5 mphClear
11:15 PM59.0 °F55.4 °F88 %30.24 in10.0 miSSE (150°)3.5 mphClear
11:35 PM60.8 °F57.2 °F88 %30.24 in10.0 miSE (140°)3.5 mphClear
11:55 PM57.2 °F55.4 °F94 %30.24 in10.0 miSE (140°)3.5 mphClear
Hourly data recorded from KTHA, located miles away from Wartrace, Tennessee







STORIES FROM OUR PARTNERS